Location: Bieg
(49.3499°N, 10.3835°E)
Time: 10:55:15
(UTC+00:00)

Cosmos 1300 Rocket - Pass Details

Date: 23 May 2024
Orbit: 597 x 624 km, 82.5° (Epoch: 20 June)

Event Time Altitude Azimuth Distance (km) Brightness Sun altitude
Rises 01:10:37 0° 350° (N) 2,877 7.9 -15.5°
Reaches altitude 10° 01:12:51 10° 351° (N) 1,964 6.9 -15.3°
Maximum altitude 01:17:12 84° 78° (ENE) 613 3.5 -14.9°
Enters shadow 01:20:34 16° 168° (SSE) 1,565 5.2 -14.7°
